sat.trackr.live / text

‹ back to catalog

STARLINK-31640

NORAD 59748 · 2024-090U

PAYLOAD ACTIVE UNKNOWN

§ Identity

Operator
Country
US
Launch date
2024-05-13
Launch site
AFETR
Launch vehicle
Mass (kg)
RCS (m²)

Purposes: comms

External: N2YO · Heavens-Above · Gunter

§ Orbital elements

Epoch: 2026-05-24T22:57:49.381056Z

Period
94.27 min
Inclination
43.0023°
Eccentricity
0.0001018
Mean motion
15.27576427 rev/d
Perigee alt
482.4 km
Apogee alt
483.8 km
Semi-major
6,861.2 km
B*
2.1235e-5
RAAN
112.8254°
Arg perigee
268.0999°
Mean anomaly
91.9736°
Rev number
11,510

§ Raw data

STARLINK-316401 59748U 24090U   26144.95682154  .00000322  00000+0  21235-4 0  99982 59748  43.0023 112.8254 0001018 268.0999  91.9736 15.27576427115102

JSON: /api/v1/satellites/59748 · /tle

For live sub-satellite position, see the globe view (requires WebGL).

§ Visibility from observer

Set your observer location to see the next 7 days of passes ≥ 10°. The values pass through the URL so the page stays shareable.

No JS? Fill the form by hand. The geolocation button needs JavaScript.